Tracking 33190 objects as of 9-Feb-2026
HD Live streaming from Space Station
objects crossing your sky now

STARLINK-3392

Track STARLINK-3392 now!
10-day predictions
STARLINK-3392 is classified as:


NORAD ID: 51123
Int'l Code: 2022-005V
Perigee: 545.9 km
Apogee: 547.9 km
Inclination: 53.2 °
Period: 95.4 minutes
Semi major axis: 6917 km
RCS: Unknown
Launch date: January 19, 2022
Source: United States (US)
Launch site: AIR FORCE EASTERN TEST RANGE (AFETR)
Your satellite tracking list
Your tracking list is empty




NASA's NSSDC Master Catalog

Two Line Element Set (TLE):
1 51123U 22005V   26039.37309890  .00000409  00000-0  43778-4 0  9996
2 51123  53.2185  60.7254 0001471  83.4655 276.6505 15.08836144224454
Source of the keplerian elements: AFSPC